Flag for Liberia Weather past 2 weeks in Gbarnga, Liberia

Now
88 °F

Partly sunny.


Feels Like: 102 °F
Forecast: 72 / 90 °F
Wind: 14 mph from Southwest

Location: Roberts Field

Current Time: Apr 25, 2015 at 1:07:37 PM

Latest Report: Apr 25, 2015 at 12:30 PM


Visibility: N/A

Pressure: 29.92 "Hg

Humidity: 75%

Dew point: 79 °F

Location of GbarngaLocation

Historic Weather in Gbarnga — Graph

°F

Gbarnga temperature yesterday

Maximum temperature yesterday: 90 °F (at 12:30 PM)
Minimum temperature yesterday: 73 °F (at 4:00 AM)
Average temperature yesterday: 82 °F

Past Weeks' High & Low Weather Summary

 TemperatureHumidityPressure
High93 °F (Apr 21, 1:30 PM)100% (Apr 11, 3:30 AM)30.01 "Hg (Apr 11, 3:30 AM)
Low73 °F (Apr 13, 12:30 AM)55% (Apr 17, 5:00 PM)29.77 "Hg (Apr 20, 4:30 PM)
Average82 °F84%29.88 "Hg
* Reported Apr 10 12:00 Noon — Apr 25 12:00 Noon, Gbarnga, Weather by CustomWeather, © 2015

Note: Actual official high and low records may vary slightly from our data, if they occured in-between our weather recording intervals... More about our weather records

Advertising

Gbarnga weather history for previous 24 hours

 ConditionsComfort  
Time TempWeatherWind HumidityBarometerVisibility
12:00 PM
Sat, Apr 25
88 °FPartly sunny.12 mph75%29.92 "HgN/A
11:30 AM88 °FPartly sunny.12 mph75%29.95 "HgN/A
11:00 AM88 °FPartly sunny.6 mph75%29.95 "HgN/A
10:30 AM88 °FPartly sunny.No wind75%29.95 "HgN/A
10:00 AM86 °FPartly sunny.No wind79%29.95 "HgN/A
9:30 AM84 °FPartly sunny.No wind84%29.95 "HgN/A
9:00 AM82 °FThunderstorms. Scattered clouds.No wind84%29.92 "HgN/A
8:30 AM81 °FThunderstorms. Scattered clouds.No wind94%29.92 "HgN/A
8:00 AM81 °FThunderstorms. Scattered clouds.No wind94%29.92 "HgN/A
7:30 AM79 °FThunderstorms. Scattered clouds.No wind94%29.92 "HgN/A
7:00 AM79 °FPassing clouds.No wind94%29.92 "HgN/A
6:30 AM77 °FPassing clouds.No wind94%29.92 "HgN/A
6:00 AM77 °FPassing clouds.No wind94%29.89 "HgN/A
5:30 AM77 °FPassing clouds.No wind94%29.89 "HgN/A
5:00 AM79 °FPassing clouds.No wind89%29.86 "HgN/A
4:30 AM79 °FPassing clouds.No wind89%29.86 "HgN/A
12:00 AM81 °FPassing clouds.No wind89%29.95 "HgN/A
11:30 PM
Fri, Apr 24
81 °FPassing clouds.No wind89%29.95 "HgN/A
11:00 PM81 °FPassing clouds.No wind89%29.95 "HgN/A
10:30 PM79 °FPassing clouds.No wind94%29.92 "HgN/A
10:00 PM81 °FPassing clouds.No wind89%29.92 "HgN/A
9:30 PM81 °FPassing clouds.No wind89%29.92 "HgN/A
9:00 PM81 °FPassing clouds.No wind89%29.89 "HgN/A
8:30 PM81 °FPassing clouds.No wind89%29.89 "HgN/A
8:00 PM82 °FPassing clouds.No wind84%29.89 "HgN/A
7:30 PM82 °FScattered clouds.No wind84%29.86 "HgN/A
7:00 PM82 °FScattered clouds.No wind84%29.86 "HgN/A
6:30 PM84 °FPartly sunny.6 mph79%29.86 "HgN/A
6:00 PM86 °FPartly sunny.7 mph75%29.83 "HgN/A
5:30 PM88 °FPartly sunny.6 mph66%29.83 "HgN/A
5:00 PM88 °FPartly sunny.6 mph62%29.83 "HgN/A
4:30 PM90 °FScattered clouds.9 mph59%29.83 "HgN/A
4:00 PM90 °FScattered clouds.12 mph59%29.83 "HgN/A
3:30 PM90 °FPassing clouds.12 mph63%29.86 "HgN/A
3:00 PM90 °FPassing clouds.3 mph63%29.86 "HgN/A
2:30 PM90 °FScattered clouds.5 mph59%29.86 "HgN/A
2:00 PM90 °FScattered clouds.9 mph63%29.89 "HgN/A
1:30 PM90 °FScattered clouds.12 mph67%29.89 "HgN/A
1:00 PM90 °FScattered clouds.6 mph55%29.89 "HgN/A
Weather by CustomWeather, © 2015

See weather overviewHow to use our weather pages